User: anonymous   Login
Location: Bailen
(14.1842°N, 120.7958°E)
Time: 10:10:53
(UTC+00:00)
Language:

Cosmos 1452 Rocket - Orbit

View from above orbital plane
View from above orbital plane
View from above satellite
View from above satellite

Ground track
Ground track

The orbit is defined by the following mean orbital elements,

1 13992U          26072.01625762 +.00000000 +00000-0 +90272-4 0 00007
2 13992  74.0503 270.9682 0005183 189.8547 170.2506 14.37554740    09
Epoch (UTC): 13 March 2026 00:23:24
Eccentricity: 0.0005183
inclination: 74.0503°
perigee height: 763 km
apogee height: 770 km
right ascension of ascending node: 270.9682°
argument of perigee: 189.8547°
revolutions per day: 14.37554740
mean anomaly at epoch: 170.2506°

The dashed part of the orbit path shows where the satellite is in the earth's shadow,  

DLR